User: anonymous   Login
Location: Vancouver
(49.2500°N, 123.1330°W)
Time: 03:10:18
(UTC-07:00)
Language:

Cosmos 1408 Rocket - Orbit

View from above orbital plane
View from above orbital plane
View from above satellite
View from above satellite

Ground track
Ground track

The orbit data is extracted from the following two-line orbital elements,

1 13553U 82092B   15210.41980478  .00000158  00000-0  15943-4 0  9998
2 13553 082.5706 155.7127 0022070 156.6996 342.9416 14.83927291774887
Epoch (UTC): 29 July 2015 10:04:31
Eccentricity: 0.0022070
inclination: 82.5706°
perigee height: 601 km
apogee height: 632 km
right ascension of ascending node: 155.7127°
argument of perigee: 156.6996°
revolutions per day: 14.83927291
mean anomaly at epoch: 342.9416°
orbit number at epoch: 77488

The dashed part of the orbit path shows where the satellite is in the earth's shadow,  

DLR